Wind_Speed
37 37 35 35 35 34 34 34 34 33 33 33 33 33 33 33 32 32 31 31 31 31 31 31 31 31 31 31 31 31 30 31 32 32 32 32 32 32 32 32 32 33 33
39 39 39 38 36 36 36 35 35 35 35 34 35 35 34 34 33 33 32 32 32 32 32 32 32 32 32 32 31 31 31 32 33 33 33 33 33 33 34 34 34 34 34
39 39 40 40 39 38 38 37 36 36 37 37 36 35 35 35 34 34 34 34 34 34 33 33 34 34 34 34 33 33 33 33 34 34 34 35 35 35 35 35 35 35 35
41 41 41 41 42 41 40 40 39 39 38 38 37 37 36 36 36 36 36 36 36 36 36 35 35 36 36 36 36 36 36 35 35 35 35 36 36 37 37 37 37 37 37
42 42 42 41 43 43 42 41 41 40 39 39 39 38 37 37 37 38 38 38 38 38 38 37 37 38 38 37 37 38 37 37 37 37 37 37 37 38 39 39 39 39 40
43 43 43 42 43 44 44 43 40 39 40 39 39 39 39 38 39 38 39 39 39 39 39 39 39 39 39 39 38 38 38 38 38 39 39 39 39 39 40 40 41 42 42
44 44 43 43 43 43 44 44 42 40 40 40 40 40 40 40 40 40 40 40 40 40 40 40 41 40 40 40 40 41 41 40 41 41 41 41 41 42 42 42 43 44 44
44 44 44 44 45 44 44 45 44 42 41 41 41 41 41 41 41 41 41 42 42 42 42 42 43 42 41 41 42 43 43 42 43 43 43 43 44 44 44 44 45 46 46
44 45 45 45 45 45 45 45 44 44 43 42 42 42 42 42 42 42 42 42 43 44 44 44 44 44 44 43 44 44 44 45 45 45 45 45 45 46 46 47 47 48 48
44 44 44 45 45 46 46 46 45 45 44 43 43 43 44 45 44 43 43 44 45 45 45 45 45 45 45 45 45 45 46 46 47 47 47 46 46 46 47 48 49 49 49
45 45 45 45 46 46 46 46 46 46 45 45 45 44 44 44 45 44 43 43 44 44 45 45 46 46 46 46 46 46 47 48 49 49 48 48 48 48 48 48 49 49 50
45 45 45 46 46 46 46 46 47 47 46 46 45 45 44 44 45 45 45 44 44 43 44 45 46 46 46 47 48 48 49 49 49 49 49 49 49 49 49 49 50 50 51
45 45 45 45 46 46 46 47 48 48 47 47 47 46 46 45 45 46 46 45 45 44 45 46 46 47 47 47 48 49 49 49 49 50 50 50 49 49 49 50 50 51 50
44 45 46 46 46 46 46 47 47 48 48 48 48 48 48 47 47 46 45 46 46 46 46 46 46 46 46 47 47 47 48 48 49 50 50 50 50 50 51 51 51 51 50
43 44 45 46 46 45 46 46 48 48 48 48 48 47 47 47 48 47 46 46 46 46 45 45 46 46 47 47 47 48 48 49 49 50 50 50 51 51 52 51 51 51 51
41 41 43 44 44 45 45 46 46 47 47 47 47 46 46 46 47 47 47 47 47 46 45 44 45 46 47 47 48 49 49 50 50 50 51 51 51 51 52 51 51 52 52
41 41 41 42 43 44 45 45 46 46 47 47 47 47 46 46 46 46 47 48 48 49 48 47 46 47 47 47 48 49 49 50 50 50 50 50 51 51 51 52 52 53 53
40 41 42 42 43 43 44 44 44 45 46 47 47 46 46 46 47 47 47 47 48 49 49 48 48 47 47 47 48 48 48 49 49 49 49 50 50 51 52 52 52 51 51
40 41 42 43 43 43 43 44 44 45 45 46 46 46 47 47 47 47 46 47 47 48 48 48 48 48 48 48 49 49 48 48 49 49 49 49 49 50 51 51 51 49 49
41 41 41 42 43 43 44 44 44 44 45 45 46 46 47 47 47 47 47 48 47 47 48 48 48 48 49 49 49 48 48 48 47 47 47 48 48 48 47 48 48 47 47
40 40 41 41 42 42 43 44 44 45 45 45 46 46 47 47 47 47 48 48 48 48 48 47 48 48 48 48 48 48 48 48 47 46 46 46 46 45 45 46 46 47 47
38 39 39 39 40 41 42 43 44 44 45 45 46 46 47 47 46 47 48 48 49 49 48 47 48 47 47 47 48 48 47 46 45 45 45 44 44 44 45 46 46 46 46
35 36 37 37 38 39 40 41 42 42 43 44 45 45 45 45 45 45 46 47 47 47 48 47 47 48 47 47 47 47 46 45 44 44 44 44 44 45 45 45 45 45 45
32 32 33 35 36 37 38 38 38 39 40 41 41 42 42 43 43 44 44 44 45 45 45 46 45 46 46 45 45 45 44 44 43 43 43 43 43 42 42 43 43 43 43
30 30 31 32 33 35 36 36 36 37 37 38 39 39 39 40 41 42 42 43 43 43 43 43 43 43 42 42 42 42 42 42 41 41 41 41 40 40 40 40 41 41 40
28 29 30 30 31 32 33 34 35 35 35 36 36 36 37 37 38 39 39 39 40 40 40 41 40 41 41 41 40 40 40 40 40 39 39 39 38 38 37 37 37 36 36
Wind_Direction
250 251 252 255 256 257 258 258 258 259 260 260 261 262 261 260 261 261 262 263 263 263 264 263 263 264 265 265 264 264 265 266 267 268 268 269 270 271 272 273 274 275 276
251 252 253 255 256 258 258 258 259 259 260 261 261 262 261 259 260 261 261 261 262 263 263 263 264 265 265 265 265 265 266 267 269 269 269 269 270 271 272 272 273 274 276
252 253 253 254 255 257 258 259 259 261 261 262 262 261 260 258 258 260 260 261 261 262 263 263 263 264 265 265 265 266 267 268 270 270 269 269 270 271 272 273 272 273 275
252 253 254 254 255 257 258 258 259 260 260 261 260 261 260 259 259 259 261 261 261 262 263 263 263 264 265 266 266 267 267 268 269 271 271 272 272 272 272 272 272 273 274
253 254 254 255 256 256 256 258 258 259 260 260 259 260 260 260 260 260 260 261 261 262 262 263 263 264 265 266 267 267 267 268 269 271 272 273 274 274 274 274 274 274 275
254 254 256 256 256 256 257 258 259 259 260 259 260 259 259 261 261 261 262 262 262 262 263 263 264 265 266 266 267 268 269 269 270 271 272 273 273 274 274 275 275 276 277
254 255 257 257 257 258 259 258 259 260 259 259 259 260 260 260 262 261 262 263 264 264 265 265 264 266 267 267 267 268 269 270 270 271 272 273 273 273 274 274 275 276 277
256 256 257 257 257 258 258 259 260 260 261 260 260 261 260 260 260 261 262 262 263 263 265 265 265 267 268 269 268 269 269 270 271 271 272 273 274 274 274 274 275 276 277
256 257 257 257 258 258 259 259 260 260 261 260 260 261 261 261 260 261 262 263 263 263 264 265 266 266 267 268 269 269 269 270 271 272 272 273 275 275 275 275 276 276 277
256 257 257 256 257 258 259 259 259 260 260 260 260 261 261 262 261 262 263 265 264 263 264 265 266 266 266 267 269 269 269 271 271 272 273 274 275 275 276 275 275 276 276
257 257 258 257 257 258 258 259 259 260 261 261 261 261 262 262 261 262 263 265 264 264 264 265 265 266 267 267 268 269 270 271 272 272 272 273 275 275 275 276 275 275 275
258 258 259 258 258 258 258 259 260 260 261 262 262 262 263 263 263 262 263 265 266 266 266 265 266 267 268 269 269 270 270 271 271 272 272 274 275 275 275 276 275 275 276
258 258 258 258 258 258 258 259 260 261 262 263 264 264 264 264 264 264 265 265 267 267 268 268 268 268 268 269 270 270 270 271 272 272 273 274 275 275 276 276 276 276 276
258 258 258 259 258 258 259 259 260 261 262 263 264 264 265 265 265 265 265 265 266 267 268 268 268 268 269 270 270 270 271 272 273 273 274 274 274 275 276 276 276 276 276
259 259 259 259 258 258 259 260 260 261 262 263 264 265 265 266 266 265 265 265 265 266 268 267 268 268 269 270 271 271 272 273 273 274 274 274 275 276 276 276 276 276 277
260 260 259 259 259 259 259 260 261 261 262 263 264 264 264 265 266 266 266 265 266 267 268 268 269 268 270 271 271 271 272 273 274 274 274 275 276 277 277 276 276 277 277
260 261 261 261 260 260 261 261 261 262 263 263 263 264 264 265 265 266 266 266 267 268 268 269 270 271 272 272 272 272 273 273 274 274 275 275 276 276 277 277 278 278 278
262 262 261 261 261 260 261 261 262 263 263 264 264 265 265 265 265 265 266 267 268 269 269 270 270 272 273 273 273 273 273 274 274 274 275 276 276 277 278 278 278 278 277
263 263 262 261 261 261 262 262 263 263 263 264 264 265 265 265 265 265 266 267 268 269 270 270 271 271 272 273 274 274 274 275 275 275 276 277 277 278 279 278 277 277 276
264 264 264 263 262 262 263 264 264 264 264 264 265 266 266 266 266 266 266 267 268 269 270 271 271 271 272 273 274 275 275 276 277 278 277 277 278 279 278 277 277 276 276
265 265 266 265 264 263 264 264 265 265 265 265 266 266 267 267 266 265 267 268 269 269 270 270 270 271 272 272 274 275 275 276 277 277 277 277 278 278 277 277 277 277 277
266 267 267 267 265 265 265 265 265 265 265 266 266 267 267 267 266 266 267 268 268 268 269 269 270 271 272 273 273 274 274 274 275 277 277 278 278 277 277 278 278 277 277
269 268 268 268 268 267 267 267 266 266 266 267 267 266 266 267 267 268 268 268 268 268 269 269 270 271 272 272 272 273 274 275 275 276 277 277 277 278 278 278 277 277 278
271 271 270 270 270 269 268 268 268 267 267 268 267 267 266 267 267 268 268 268 268 268 269 269 270 271 272 272 271 272 273 274 275 276 277 278 277 279 278 277 277 278 277
273 273 272 272 272 272 270 269 268 268 268 268 268 268 268 267 267 267 268 269 268 268 268 269 269 270 271 271 271 271 272 273 274 275 276 278 278 278 279 279 279 278 278
274 275 275 275 276 276 274 271 269 269 268 269 268 268 268 267 267 267 269 269 268 267 268 268 269 269 270 270 269 270 271 272 273 274 276 278 278 278 278 278 278 279 279
Height
5784 5785 5787 5788 5790 5791 5791 5792 5793 5793 5794 5795 5796 5797 5797 5798 5798 5799 5799 5800 5800 5800 5801 5801 5801 5801 5801 5801 5801 5801 5801 5801 5801 5801 5800 5800 5800 5799 5798 5798 5797 5796 5795
5776 5778 5779 5780 5782 5783 5784 5785 5786 5786 5787 5788 5788 5789 5790 5790 5791 5792 5792 5793 5793 5793 5794 5794 5794 5794 5795 5795 5795 5794 5794 5794 5794 5794 5793 5793 5792 5792 5791 5790 5789 5788 5787
5768 5769 5771 5772 5774 5775 5776 5777 5778 5778 5779 5780 5781 5781 5782 5782 5783 5784 5785 5785 5786 5786 5786 5787 5787 5787 5787 5787 5787 5787 5787 5787 5786 5786 5786 5785 5785 5784 5783 5782 5782 5781 5780
5759 5761 5762 5764 5765 5766 5767 5768 5769 5770 5770 5771 5772 5773 5774 5774 5775 5776 5777 5777 5778 5778 5778 5779 5779 5779 5779 5780 5780 5780 5780 5779 5779 5778 5778 5777 5777 5776 5775 5774 5773 5772 5771
5750 5751 5753 5754 5756 5757 5758 5759 5760 5761 5761 5762 5763 5764 5765 5766 5767 5768 5768 5769 5769 5770 5770 5770 5771 5771 5771 5771 5771 5771 5771 5771 5771 5770 5770 5769 5768 5767 5766 5765 5764 5763 5762
5740 5742 5743 5745 5746 5747 5749 5750 5751 5751 5753 5753 5754 5755 5756 5757 5758 5759 5759 5760 5760 5761 5761 5762 5762 5762 5762 5763 5763 5763 5762 5762 5762 5761 5761 5760 5759 5758 5757 5756 5755 5754 5753
5730 5732 5734 5735 5737 5738 5739 5740 5741 5742 5743 5744 5745 5746 5747 5748 5749 5750 5750 5751 5751 5752 5752 5753 5753 5753 5753 5754 5754 5754 5753 5753 5752 5752 5751 5750 5750 5749 5747 5746 5745 5744 5743
5721 5722 5724 5725 5727 5728 5729 5731 5732 5733 5733 5734 5735 5736 5737 5738 5739 5740 5741 5741 5742 5742 5743 5743 5743 5743 5744 5744 5744 5744 5743 5743 5742 5742 5741 5740 5739 5738 5737 5736 5735 5733 5732
5710 5712 5714 5715 5716 5718 5719 5720 5721 5723 5724 5724 5725 5726 5727 5728 5729 5730 5731 5731 5732 5732 5732 5733 5733 5733 5733 5733 5733 5733 5733 5732 5732 5731 5730 5729 5728 5727 5726 5725 5724 5722 5720
5699 5701 5703 5704 5705 5707 5708 5710 5711 5712 5713 5714 5714 5716 5717 5718 5719 5720 5721 5721 5721 5721 5722 5722 5722 5723 5723 5723 5722 5722 5722 5721 5720 5720 5719 5718 5717 5716 5714 5713 5712 5710 5709
5688 5690 5692 5693 5694 5696 5697 5699 5700 5701 5702 5703 5704 5704 5705 5707 5708 5709 5710 5711 5710 5710 5710 5711 5711 5711 5711 5711 5711 5710 5710 5709 5709 5708 5707 5706 5705 5704 5702 5701 5699 5698 5696
5677 5679 5680 5681 5683 5684 5686 5687 5689 5690 5691 5692 5692 5693 5694 5695 5697 5698 5699 5699 5700 5700 5699 5699 5700 5700 5700 5699 5699 5699 5698 5697 5697 5696 5695 5694 5693 5691 5690 5688 5686 5685 5683
5665 5667 5668 5670 5671 5673 5674 5676 5677 5678 5679 5680 5681 5682 5683 5684 5685 5686 5687 5688 5688 5688 5688 5688 5688 5688 5688 5687 5687 5687 5686 5685 5684 5683 5682 5681 5680 5679 5677 5675 5674 5672 5670
5653 5655 5656 5658 5659 5661 5662 5664 5665 5666 5667 5669 5670 5671 5671 5672 5673 5674 5675 5676 5676 5677 5677 5677 5676 5676 5676 5675 5675 5674 5674 5673 5672 5671 5670 5668 5667 5665 5664 5662 5661 5659 5657
5641 5642 5644 5646 5647 5649 5650 5651 5653 5654 5655 5657 5658 5659 5660 5660 5661 5662 5663 5664 5664 5665 5665 5665 5665 5664 5664 5663 5663 5662 5661 5660 5659 5658 5657 5655 5654 5652 5650 5649 5647 5645 5644
5630 5631 5632 5633 5635 5636 5638 5639 5641 5642 5643 5645 5646 5647 5648 5648 5649 5649 5650 5651 5651 5652 5652 5653 5652 5652 5651 5651 5650 5650 5649 5648 5646 5645 5644 5642 5641 5639 5637 5635 5633 5631 5629
5619 5620 5621 5622 5623 5625 5626 5627 5628 5629 5631 5632 5633 5634 5635 5636 5636 5636 5637 5638 5638 5639 5640 5640 5640 5639 5638 5638 5637 5636 5635 5634 5633 5631 5630 5628 5627 5625 5623 5621 5619 5617 5615
5608 5609 5609 5610 5611 5612 5614 5615 5616 5617 5618 5619 5620 5621 5622 5622 5623 5624 5624 5624 5625 5626 5626 5627 5627 5626 5625 5625 5624 5623 5622 5621 5619 5618 5616 5614 5613 5611 5609 5607 5604 5603 5601
5597 5597 5598 5599 5599 5600 5601 5602 5603 5604 5605 5606 5607 5608 5609 5609 5610 5610 5611 5611 5612 5612 5613 5613 5614 5613 5612 5612 5611 5610 5608 5607 5606 5604 5602 5601 5599 5597 5594 5592 5590 5588 5587
5585 5586 5586 5586 5587 5588 5589 5590 5591 5591 5592 5593 5594 5595 5595 5596 5596 5597 5598 5598 5599 5599 5599 5599 5599 5600 5599 5598 5597 5596 5595 5594 5592 5590 5588 5587 5585 5583 5581 5579 5577 5575 5573
5573 5574 5574 5575 5575 5576 5576 5577 5578 5578 5579 5579 5580 5581 5582 5582 5583 5583 5584 5585 5585 5585 5585 5585 5586 5586 5586 5585 5584 5583 5582 5581 5579 5577 5575 5574 5572 5570 5567 5565 5563 5562 5560
5562 5562 5563 5563 5563 5563 5564 5564 5564 5565 5566 5566 5566 5567 5568 5569 5569 5570 5570 5571 5571 5572 5572 5572 5572 5572 5572 5571 5571 5569 5568 5568 5567 5566 5563 5561 5559 5557 5554 5552 5550 5548 5547
5551 5551 5551 5551 5552 5551 5551 5551 5551 5552 5552 5552 5553 5553 5554 5555 5555 5556 5556 5557 5557 5557 5558 5559 5559 5559 5559 5559 5558 5557 5555 5554 5554 5552 5550 5549 5546 5544 5542 5539 5537 5536 5534
5541 5541 5541 5540 5540 5540 5539 5539 5539 5539 5539 5539 5539 5540 5541 5541 5541 5542 5543 5543 5544 5544 5545 5546 5546 5546 5545 5544 5544 5543 5542 5542 5541 5539 5537 5536 5534 5532 5529 5527 5525 5523 5522
5531 5531 5530 5530 5529 5528 5528 5527 5527 5527 5527 5527 5527 5528 5528 5529 5529 5530 5530 5531 5531 5532 5531 5532 5532 5532 5532 5531 5531 5530 5530 5529 5529 5527 5525 5524 5522 5521 5519 5516 5513 5511 5510
5522 5521 5521 5520 5519 5518 5517 5516 5516 5516 5516 5516 5516 5516 5517 5517 5517 5517 5518 5518 5519 5519 5520 5520 5519 5519 5519 5519 5518 5518 5518 5517 5516 5516 5514 5513 5511 5509 5508 5506 5503 5501 5499